[[{"header":{"parameterUnit":"m.s-1","parameterCategory":1,"la1":30.2991,"la2":30.254,"lo1":-89.0895,"lo2":-89.0444,"dy":0.0017,"dx":0.0017,"nx":28,"ny":28,"refTime":"2025-06-18T21:00:00:Z","depth":0,"parameterNumber":2,"parameterNumberName":"U-component_of_WINDS"},"data":[0,0,0,0,0,0,0,0,0,0,0,0,0,0,0,0,0,0,0,0,0,0,0,0,0,0,0,0,0,0,0,0,0,0,0,0,0,0,0,0,0,0,0,0,0,0,0,0,0,0,0,0,0,0,0,0,0,0,-0.5909,-0.5908,0,-0.5796,-0.5795,-0.5793,-0.5737,-0.5737,-0.5737,-0.5737,-0.5621,-0.5618,-0.5615,0,0,0,0,0,0,0,0,0,0,0,0,0,-0.6076,-0.6073,-0.5909,-0.5907,-0.5906,-0.5796,-0.5795,-0.5793,-0.5737,-0.5737,-0.5737,-0.5737,-0.5622,-0.5618,-0.5615,0,0,0,0,0,0,0,0,0,0,0,0,0,-0.5987,-0.6072,-0.5909,-0.5865,-0.586,-0.5797,-0.5795,-0.5793,-0.5737,-0.5737,-0.5737,-0.5737,-0.5623,-0.5619,-0.5614,-0.5586,0,0,-0.56,-0.5598,0,0,0,0,0,0,0,0,-0.5993,-0.5981,-0.5873,-0.5868,-0.5862,-0.5781,-0.5811,-0.5723,-0.5737,-0.5784,-0.5737,-0.5737,-0.5674,-0.5665,-0.5644,-0.5581,-0.5576,-0.56,-0.5597,-0.5595,-0.5594,0,0,0,0,0,0,0,-0.5999,-0.5986,-0.5864,-0.5871,-0.5865,-0.5851,-0.5838,-0.5794,-0.573,-0.578,-0.5775,-0.5763,-0.5671,-0.5649,-0.5641,-0.5574,-0.56,-0.5596,-0.5593,-0.5591,-0.5482,-0.5482,0,0,0,0,0,0,-0.6012,-0.5991,-0.5868,-0.5861,-0.5929,-0.5848,-0.5834,-0.5807,-0.5731,-0.5719,-0.5763,-0.5761,-0.5657,-0.5646,-0.5637,-0.5599,-0.5595,-0.5591,-0.5588,-0.5482,-0.5482,-0.5482,0,0,0,0,0,0,-0.6016,-0.6002,-0.5872,-0.5925,-0.5907,-0.5845,-0.5815,-0.5805,-0.5782,-0.5718,-0.5706,-0.5752,-0.5656,-0.5643,-0.5599,-0.5594,-0.5588,-0.5584,-0.5483,-0.5482,-0.5482,-0.5523,0,0,0,0,0,0,-0.6021,-0.6003,-0.5992,-0.5925,-0.5905,-0.5837,-0.5815,-0.5802,-0.5774,-0.577,-0.5704,-0.5694,-0.5655,-0.5606,-0.5595,-0.5588,-0.5581,-0.5483,-0.5482,-0.5482,-0.5522,-0.5524,-0.5526,0,0,0,0,0,-0.6027,-0.6008,-0.5992,-0.5977,-0.5889,-0.5837,-0.5825,-0.5781,-0.5774,-0.5762,-0.5721,-0.5696,-0.5597,-0.5602,-0.5589,-0.558,-0.5483,-0.5483,-0.5482,-0.5521,-0.5524,-0.5526,0,0,0,0,0,0,-0.6075,-0.5998,-0.5979,-0.5938,-0.5894,-0.5827,-0.5811,-0.5786,-0.5743,-0.5741,-0.5689,-0.5675,-0.5636,-0.5603,-0.5611,-0.5549,-0.5537,-0.5534,-0.5571,-0.5574,-0.5576,-0.5584,-0.5577,0,0,0,0,0,-0.6081,-0.6045,-0.5979,-0.5949,-0.5928,-0.5874,-0.5849,-0.5819,-0.5772,-0.5753,-0.5709,-0.5664,-0.5623,-0.5597,-0.5555,-0.5517,-0.5502,-0.5505,-0.5507,-0.5509,-0.5507,-0.5485,-0.5485,-0.5481,-0.5481,-0.5481,0,0,-0.6092,-0.6046,-0.6026,-0.5957,-0.592,-0.5884,-0.5858,-0.5821,-0.5793,-0.5747,-0.5703,-0.5669,-0.5616,-0.5575,-0.5555,-0.5547,-0.5505,-0.5509,-0.5511,-0.5508,-0.5485,-0.5485,-0.5486,-0.5481,-0.5481,-0.5481,0,0,-0.6095,-0.6056,-0.6026,-0.599,-0.5934,-0.5898,-0.5891,-0.5828,-0.5804,-0.5759,-0.5724,-0.569,-0.562,-0.5584,-0.5556,-0.5546,-0.5521,-0.5534,-0.5545,-0.5524,-0.5525,-0.5525,-0.5521,-0.552,-0.5532,-0.5532,-0.5532,0,-0.6116,-0.606,-0.6014,-0.5979,-0.595,-0.5907,-0.5877,-0.5844,-0.5777,-0.5758,-0.5751,-0.5663,-0.5624,-0.5574,-0.5571,-0.555,-0.5541,-0.554,-0.5528,-0.5528,-0.5527,-0.5523,-0.5522,-0.5534,-0.5534,-0.5534,-0.5533,0,-0.6088,-0.605,-0.6033,-0.597,-0.5939,-0.5907,-0.5857,-0.5831,-0.5805,-0.577,-0.5725,-0.5676,-0.5625,-0.5611,-0.5584,-0.5557,-0.5554,-0.5538,-0.5525,-0.553,-0.5525,-0.5523,-0.5537,-0.5536,-0.5536,-0.5535,0,0,-0.6117,-0.603,-0.6024,-0.5995,-0.5931,-0.5901,-0.5867,-0.5816,-0.5795,-0.5751,-0.5721,-0.5664,-0.5649,-0.5617,-0.5587,-0.5569,-0.5564,-0.5555,-0.5553,-0.5558,-0.5531,-0.5543,-0.5542,-0.5547,-0.5546,-0.5546,-0.5535,0,-0.6109,-0.6046,-0.6005,-0.5958,-0.5922,-0.5882,-0.5852,-0.5809,-0.5776,-0.5741,-0.5704,-0.5664,-0.5647,-0.5628,-0.5609,-0.5568,-0.5557,-0.5569,-0.5518,-0.5517,-0.5532,-0.5539,-0.5551,-0.5543,-0.5533,-0.5533,-0.5532,0,-0.6092,-0.605,-0.5999,-0.5939,-0.5923,-0.5897,-0.5848,-0.5815,-0.5766,-0.5743,-0.5709,-0.5678,-0.564,-0.5631,-0.5579,-0.5587,-0.5565,-0.5542,-0.5541,-0.5533,-0.5524,-0.5532,-0.5539,-0.5538,-0.5529,-0.5529,-0.5529,0,-0.6118,-0.6048,-0.6008,-0.5985,-0.5914,-0.5897,-0.5867,-0.5818,-0.5791,-0.5748,-0.573,-0.5683,-0.5658,-0.5623,-0.558,-0.5577,-0.5532,-0.5519,-0.5512,-0.5513,-0.5503,-0.5504,-0.5507,-0.549,-0.549,-0.549,-0.549,0,-0.6114,-0.6084,-0.6019,-0.5995,-0.5961,-0.5914,-0.5882,-0.5848,-0.5806,-0.5774,-0.5737,-0.5708,-0.5654,-0.5619,-0.5586,-0.5547,-0.5536,-0.5516,-0.5508,-0.5519,-0.5522,-0.5503,-0.5502,-0.5489,-0.5489,-0.5489,-0.5489,0,-0.6136,-0.6091,-0.6045,-0.5983,-0.5966,-0.5944,-0.589,-0.5865,-0.583,-0.5791,-0.578,-0.5725,-0.5682,-0.5636,-0.5577,-0.5555,-0.5518,-0.5506,-0.5534,-0.5529,-0.5524,-0.5525,-0.5514,-0.551,-0.5497,-0.5497,-0.5497,0,-0.6136,-0.6112,-0.6047,-0.6024,-0.5994,-0.5957,-0.5929,-0.5882,-0.5855,-0.5798,-0.578,-0.5734,-0.5695,-0.5628,-0.5583,-0.5538,-0.5524,-0.5524,-0.5517,-0.553,-0.5524,-0.5526,-0.5523,-0.5526,-0.5526,-0.5526,-0.5527,0,-0.6141,-0.612,-0.6081,-0.6034,-0.6002,-0.5963,-0.5923,-0.5906,-0.5851,-0.5822,-0.5778,-0.5748,-0.5688,-0.5643,-0.5593,-0.5561,-0.5535,-0.5529,-0.5525,-0.5536,-0.5554,-0.5544,-0.5539,-0.5529,-0.5529,-0.5529,-0.5529,-0.5529,-0.6151,-0.6129,-0.6079,-0.6037,-0.6002,-0.5966,-0.5939,-0.5901,-0.5864,-0.5811,-0.5786,-0.5742,-0.5695,-0.5624,-0.5594,-0.5559,-0.5551,-0.5545,-0.5543,-0.5542,-0.5545,-0.556,-0.555,-0.5549,-0.5549,-0.5549,-0.5549,0,-0.6154,-0.6121,-0.6082,-0.6027,-0.5994,-0.5973,-0.5927,-0.5901,-0.5863,-0.5821,-0.5783,-0.5732,-0.5689,-0.5641,-0.5594,-0.5575,-0.5562,-0.5565,-0.5565,-0.5558,-0.5555,-0.5563,-0.5576,-0.5576,-0.5576,-0.5576,-0.5576,-0.5576,-0.6152,-0.6112,-0.6086,-0.6029,-0.5995,-0.5951,-0.5927,-0.5893,-0.586,-0.5805,-0.5768,-0.5737,-0.5693,-0.5643,-0.5602,-0.5589,-0.5574,-0.558,-0.5563,-0.5561,-0.5559,-0.5557,-0.5564,-0.5577,-0.5577,-0.5569,-0.5569,-0.5569]},{"header":{"parameterUnit":"m.s-1","parameterCategory":1,"la1":30.2991,"la2":30.254,"lo1":-89.0895,"lo2":-89.0444,"dy":0.0017,"dx":0.0017,"nx":28,"ny":28,"refTime":"2025-06-18T21:00:00:Z","depth":0,"parameterNumber":3,"parameterNumberName":"V-component_of_WINDS"},"data":[0,0,0,0,0,0,0,0,0,0,0,0,0,0,0,0,0,0,0,0,0,0,0,0,0,0,0,0,0,0,0,0,0,0,0,0,0,0,0,0,0,0,0,0,0,0,0,0,0,0,0,0,0,0,0,0,0,0,5.0145,5.0145,0,5.0134,5.0134,5.0134,5.0072,5.007,5.0069,5.0068,5.0057,5.0058,5.0059,0,0,0,0,0,0,0,0,0,0,0,0,0,5.0115,5.0116,5.0145,5.0145,5.0145,5.0134,5.0134,5.0134,5.0072,5.007,5.0069,5.0067,5.0056,5.0058,5.0059,0,0,0,0,0,0,0,0,0,0,0,0,0,5.0118,5.0116,5.0145,5.0113,5.011,5.0134,5.0134,5.0134,5.0073,5.007,5.0068,5.0066,5.0056,5.0058,5.0059,5.0113,0,0,5.0064,5.0065,0,0,0,0,0,0,0,0,5.0118,5.012,5.0118,5.0115,5.0112,5.0102,5.0119,5.0127,5.0073,5.0087,5.0068,5.0065,5.0074,5.0074,5.0076,5.0113,5.0112,5.0064,5.0065,5.0066,5.0066,0,0,0,0,0,0,0,5.0118,5.012,5.0141,5.0118,5.0114,5.0099,5.0097,5.012,5.0093,5.0085,5.0081,5.008,5.0072,5.0075,5.0076,5.0112,5.0064,5.0066,5.0067,5.0067,5.0193,5.0195,0,0,0,0,0,0,5.0122,5.012,5.0141,5.014,5.011,5.0102,5.01,5.0108,5.0092,5.0088,5.0082,5.0078,5.0073,5.0074,5.0075,5.0137,5.0066,5.0067,5.0068,5.019,5.0193,5.0196,0,0,0,0,0,0,5.0122,5.0125,5.0142,5.0129,5.013,5.0105,5.0114,5.0108,5.0112,5.009,5.0085,5.0091,5.0072,5.0073,5.0104,5.0136,5.0068,5.007,5.0188,5.0191,5.0194,5.0263,0,0,0,0,0,0,5.0121,5.0125,5.0145,5.013,5.0131,5.0171,5.0116,5.011,5.0115,5.0108,5.0097,5.0092,5.007,5.0102,5.0106,5.0137,5.0071,5.0185,5.0189,5.0193,5.0257,5.0268,5.0277,0,0,0,0,0,5.012,5.0165,5.0147,5.0149,5.0156,5.0173,5.0173,5.0146,5.0117,5.0138,5.0124,5.0093,5.0132,5.0106,5.011,5.0142,5.0182,5.0188,5.0193,5.0253,5.0266,5.0277,0,0,0,0,0,0,5.0185,5.0162,5.0142,5.0183,5.018,5.0162,5.0187,5.0161,5.0167,5.0161,5.0127,5.0125,5.0162,5.0155,5.0126,5.0194,5.0152,5.0158,5.0196,5.0209,5.0218,5.0219,5.0072,0,0,0,0,0,5.0204,5.022,5.0199,5.0237,5.0237,5.0213,5.0219,5.0198,5.0195,5.0193,5.0182,5.0179,5.0191,5.02,5.0209,5.0256,5.0253,5.028,5.029,5.0299,5.0304,5.0329,5.0341,5.0213,5.0213,5.0213,0,0,5.0244,5.0233,5.0245,5.025,5.0246,5.0263,5.0212,5.0232,5.0245,5.0196,5.0225,5.0217,5.0212,5.0252,5.0268,5.0247,5.0339,5.0305,5.0312,5.0313,5.0335,5.0347,5.0358,5.0217,5.0216,5.0215,0,0,5.0324,5.0318,5.0349,5.0345,5.0339,5.0323,5.033,5.0317,5.0309,5.0337,5.0301,5.0316,5.0337,5.0335,5.0337,5.0417,5.0389,5.0421,5.0473,5.0497,5.0507,5.0515,5.0544,5.0554,5.0427,5.0427,5.0427,0,5.0374,5.0398,5.0368,5.0391,5.0394,5.0351,5.0382,5.038,5.0378,5.0381,5.0358,5.0383,5.0377,5.0415,5.0435,5.0438,5.0445,5.0422,5.0508,5.0516,5.0524,5.0551,5.0561,5.0431,5.0431,5.043,5.043,0,5.0459,5.0477,5.0503,5.0501,5.0507,5.0534,5.0509,5.0519,5.0498,5.0484,5.0513,5.0504,5.0511,5.0519,5.0499,5.0555,5.0542,5.0514,5.0471,5.054,5.0565,5.0575,5.0437,5.0435,5.0434,5.0433,0,0,5.058,5.0561,5.0571,5.057,5.056,5.0573,5.0599,5.0605,5.0614,5.0614,5.0635,5.0654,5.0627,5.0629,5.0609,5.063,5.0694,5.0599,5.0598,5.0616,5.0755,5.0776,5.0788,5.0675,5.0677,5.0679,5.0755,0,5.0657,5.0698,5.0672,5.0717,5.0733,5.0692,5.0714,5.0711,5.0699,5.0711,5.0697,5.0711,5.0675,5.0676,5.0695,5.0682,5.0721,5.0676,5.0694,5.0695,5.0696,5.0801,5.0823,5.0896,5.0764,5.0766,5.0767,0,5.0751,5.0755,5.0802,5.0789,5.0795,5.0815,5.0819,5.0831,5.0826,5.0816,5.0818,5.0792,5.0816,5.0775,5.0808,5.0778,5.0784,5.0778,5.0781,5.0781,5.0735,5.0804,5.0918,5.0929,5.0782,5.0781,5.078,0,5.0834,5.0851,5.0881,5.0882,5.0867,5.0882,5.0877,5.087,5.0876,5.088,5.0883,5.089,5.0894,5.09,5.0876,5.0848,5.0912,5.0869,5.0904,5.0905,5.0919,5.0918,5.1036,5.0924,5.0924,5.0923,5.0923,0,5.0922,5.0953,5.0918,5.0937,5.097,5.094,5.0973,5.0964,5.0958,5.0974,5.094,5.0956,5.0925,5.0938,5.092,5.0949,5.0951,5.0944,5.0939,5.0947,5.0948,5.095,5.0944,5.0926,5.0926,5.0925,5.0925,0,5.102,5.0998,5.1028,5.1013,5.1009,5.1034,5.1021,5.1037,5.1023,5.1044,5.1047,5.1025,5.1038,5.1015,5.1027,5.1014,5.1056,5.1043,5.1057,5.1053,5.109,5.1086,5.1212,5.1227,5.1106,5.1107,5.1108,0,5.1078,5.11,5.1086,5.1094,5.1091,5.1105,5.111,5.1082,5.1089,5.1086,5.1103,5.1114,5.112,5.1144,5.1129,5.1137,5.1124,5.1168,5.1125,5.1133,5.1124,5.1123,5.1125,5.1176,5.1178,5.1179,5.118,0,5.1182,5.117,5.1179,5.1184,5.1192,5.1195,5.1195,5.1204,5.1174,5.1184,5.1197,5.1203,5.1214,5.1225,5.1229,5.1224,5.1197,5.1193,5.1202,5.121,5.1217,5.1213,5.108,5.119,5.1189,5.1189,5.1188,5.1188,5.1261,5.1279,5.1272,5.1283,5.128,5.1282,5.1296,5.1284,5.1294,5.13,5.1283,5.1301,5.1296,5.1299,5.1297,5.131,5.1291,5.1304,5.1307,5.131,5.1316,5.1216,5.1311,5.1311,5.131,5.131,5.131,0,5.1363,5.1356,5.1367,5.1369,5.1378,5.1351,5.1351,5.136,5.1375,5.1373,5.138,5.1396,5.1406,5.1392,5.14,5.1413,5.1401,5.1417,5.1415,5.1414,5.1333,5.1324,5.1426,5.1426,5.1426,5.1426,5.1426,5.1426,5.1417,5.1446,5.1433,5.146,5.1453,5.147,5.1472,5.1473,5.1471,5.1489,5.1497,5.1488,5.1481,5.1488,5.1497,5.1492,5.1497,5.1516,5.1508,5.1431,5.142,5.1409,5.1401,5.1518,5.1518,5.1588,5.1589,5.1589]}]]